Location: Marcé
(47.5801°N, 0.3280°W)
Time: 23:10:49
(UTC+01:00)

Transit 2A - Pass Details

Date: 05 December 2021
Orbit: 591 x 967 km, 66.7° (Epoch: 16 January)

Event Time Altitude Azimuth Distance (km) Brightness Sun altitude
Rises 09:27:59 0° 324° (NW) 3,661 8.8 6.4°
Reaches altitude 10° 09:30:34 10° 323° (NW) 2,715 8.2 6.7°
Maximum altitude 09:36:59 79° 239° (WSW) 976 6.7 7.5°
Drops below altitude 10° 09:43:08 10° 154° (SSE) 2,598 10.6 8.2°
Sets 09:45:33 0° 153° (SSE) 3,494 11.2 8.5°
